Location: Hackbridge
(51.3833°N, 0.1500°W)
Time: 15:03:24
(UTC+00:00)

Cosmos 2228 - Pass Details

Date: 13 October 2019
Orbit: 588 x 620 km, 82.5° (Epoch: 14 November)

Event Time Altitude Azimuth Distance (km) Brightness Sun altitude
Rises 19:12:47 0° 207° (SSW) 2,883 6.7 -19.5°
Reaches altitude 10° 19:15:06 10° 214° (SW) 1,979 5.9 -19.8°
Maximum altitude 19:19:17 43° 287° (WNW) 876 4.3 -20.5°
Drops below altitude 10° 19:23:28 10° 359° (N) 1,980 5.8 -21.1°
Sets 19:25:47 0° 6° (N) 2,884 6.6 -21.5°
